FW6490 Weather Reports


time (UTC)temp
F
wind
direction
speed
knots
gust
knots
rain 1hr
in
rain 24hr
in
rain mn
in
humidity
%
barometer
mb
20260901190708 73 344 2.6 6.1 0.00 0.00 0.00 54 1011.7
20260901190213 73 314 2.6 5.2 0.00 0.00 0.00 54 1011.7
20260901185706 73 348 2.6 7.8 0.00 0.00 0.00 53 1011.7
20260901185200 72 347 2.6 7.8 0.00 0.00 0.00 55 1011.7
20260901184659 73 321 2.6 6.1 0.00 0.00 0.00 54 1011.7
20260901184205 72 318 2.6 8.7 0.00 0.00 0.00 53 1011.7
20260901183659 72 290 2.6 8.7 0.00 0.00 0.00 55 1011.7
20260901183155 71 340 2.6 6.1 0.00 0.00 0.00 55 1011.7
20260901182654 71 306 2.6 6.1 0.00 0.00 0.00 57 1011.8
20260901182151 70 323 2.6 7.0 0.00 0.00 0.00 56 1011.8
20260901181649 70 307 3.5 7.0 0.00 0.00 0.00 57 1011.8
20260901181149 70 342 3.5 7.0 0.00 0.00 0.00 58 1011.8
20260901180648 70 315 2.6 6.1 0.00 0.00 0.00 59 1011.8
20260901180149 71 313 3.5 6.1 0.00 0.00 0.00 58 1011.8
20260901175146 70 42 3.5 9.6 0.00 0.00 0.00 61 1011.7
20260901174138 69 303 4.3 7.0 0.00 0.00 0.00 61 1011.7
20260901173638 70 311 4.3 8.7 0.00 0.00 0.00 58 1011.7
20260901173138 70 313 3.5 8.7 0.00 0.00 0.00 58 1011.7
20260901172134 72 324 1.7 6.1 0.00 0.00 0.00 57 1011.3
20260901171634 72 351 2.6 6.1 0.00 0.00 0.00 60 1011.3
20260901171135 71 19 2.6 6.1 0.00 0.00 0.00 60 1011.5
20260901170631 71 338 2.6 6.1 0.00 0.00 0.00 61 1011.5
20260901170129 70 344 1.7 6.1 0.00 0.00 0.00 62 1011.5
20260901165628 70 355 1.7 5.2 0.00 0.00 0.00 62 1011.3
20260901165127 69 335 1.7 6.1 0.00 0.00 0.00 64 1011.3
20260901164625 69 335 1.7 6.1 0.00 0.00 0.00 63 1011.3
20260901163623 69 330 0.9 4.3 0.00 0.00 0.00 65 1011.3
20260901163121 68 42 0.9 6.1 0.00 0.00 0.00 68 1011.3
20260901162619 67 42 0.9 6.1 0.00 0.00 0.00 68 1011.3
20260901161618 66 92 0.9 5.2 0.00 0.00 0.00 72 1011.3
20260901161114 66 92 0.9 5.2 0.00 0.00 0.00 71 1011.3
20260901155108 66 246 0.9 1.7 0.00 0.00 0.00 74 1011.2
20260901154107 65 270 0.0 0.0 0.00 0.00 0.00 75 1011.2
20260901153602 64 270 0.0 0.0 0.00 0.00 0.00 75 1011.2
20260901153059 64 270 0.0 0.0 0.00 0.00 0.00 78 1011.2
20260901152557 64 270 0.0 0.0 0.00 0.00 0.00 77 1011.1
20260901151556 62 270 0.0 0.0 0.00 0.00 0.00 81 1011.1
20260901150048 61 270 0.0 0.0 0.00 0.00 0.00 85 1011.1
20260901145045 59 270 0.0 0.0 0.00 0.00 0.00 89 1011.0
20260901144542 58 270 0.0 0.0 0.00 0.00 0.00 89 1011.0
20260901143533 56 270 0.0 0.0 0.00 0.00 0.00 91 1010.8
20260901143029 56 270 0.0 0.0 0.00 0.00 0.00 92 1010.7
20260901142524 55 270 0.0 0.0 0.00 0.00 0.00 91 1010.6
20260901142021 55 270 0.0 0.0 0.00 0.00 0.00 91 1010.6
20260901141518 54 270 0.0 0.0 0.00 0.00 0.00 91 1010.6
20260901141011 54 270 0.0 0.0 0.00 0.00 0.00 91 1010.6
20260901140507 54 270 0.0 0.0 0.00 0.00 0.00 91 1010.6
20260901140006 54 270 0.0 0.0 0.00 0.00 0.00 90 1010.6
20260901135001 54 270 0.0 0.0 0.00 0.00 0.00 90 1010.5
20260901134501 55 270 0.0 0.0 0.00 0.00 0.00 90 1010.5
20260901133959 55 270 0.0 0.0 0.00 0.00 0.00 90 1010.5
20260901133000 55 270 0.0 0.0 0.00 0.00 0.00 90 1010.5
20260901131950 55 270 0.0 0.0 0.00 0.00 0.00 90 1010.5
20260901131447 55 270 0.0 0.0 0.00 0.00 0.00 90 1010.5
20260901130939 55 270 0.0 0.0 0.00 0.00 0.00 90 1010.5
20260901125936 55 270 0.0 0.0 0.00 0.00 0.00 90 1010.5
20260901125435 55 270 0.0 0.0 0.00 0.00 0.00 90 1010.5
20260901124931 55 270 0.0 0.0 0.00 0.00 0.00 90 1010.5
20260901123426 56 270 0.0 0.0 0.00 0.00 0.00 90 1010.4
20260901122920 56 270 0.0 0.0 0.00 0.00 0.00 90 1010.4
20260901122419 56 270 0.0 0.0 0.00 0.00 0.00 90 1010.2
20260901121915 56 270 0.0 0.0 0.00 0.00 0.00 90 1010.2
20260901121415 56 270 0.0 0.0 0.00 0.00 0.00 90 1010.2
20260901120407 56 270 0.0 0.0 0.00 0.00 0.00 89 1010.0
20260901115906 56 270 0.0 2.6 0.00 0.00 0.00 89 1010.0
20260901114855 56 270 0.0 0.0 0.00 0.00 0.00 89 1010.0
20260901113859 56 270 0.0 0.0 0.00 0.00 0.00 88 1010.1
20260901113356 57 270 0.0 0.0 0.00 0.00 0.00 88 1010.1
20260901112849 57 270 0.0 0.0 0.00 0.00 0.00 88 1010.1
20260901112348 57 270 0.0 0.0 0.00 0.00 0.00 88 1010.1
20260901111847 57 270 0.0 0.0 0.00 0.00 0.00 88 1010.1
20260901111346 57 270 0.0 0.0 0.00 0.00 0.00 88 1010.1
20260901110839 57 270 0.0 0.0 0.00 0.00 0.00 88 1010.1
20260901110342 57 270 0.0 0.0 0.00 0.00 0.00 88 1010.1
20260901105834 57 270 0.0 0.0 0.00 0.00 0.00 88 1010.1
20260901105338 57 270 0.0 0.0 0.00 0.00 0.00 88 1010.1
20260901104335 57 270 0.0 0.0 0.00 0.00 0.00 88 1010.1
20260901103329 57 270 0.0 0.0 0.00 0.00 0.00 88 1010.1
20260901102829 57 270 0.0 0.0 0.00 0.00 0.00 88 1010.0
20260901102329 56 270 0.0 0.0 0.00 0.00 0.00 88 1010.0
20260901101828 57 270 0.0 0.0 0.00 0.00 0.00 89 1010.0
20260901101331 57 270 0.0 0.0 0.00 0.00 0.00 89 1010.0
20260901100826 57 270 0.0 0.0 0.00 0.00 0.00 89 1010.0
20260901100326 56 270 0.0 0.0 0.00 0.00 0.00 89 1010.0
20260901095820 56 270 0.0 0.0 0.00 0.00 0.00 89 1010.1
20260901094820 56 270 0.0 0.0 0.00 0.00 0.00 90 1010.1
20260901094314 56 270 0.0 0.0 0.00 0.00 0.00 90 1010.1
20260901093814 56 270 0.0 0.0 0.00 0.00 0.00 90 1010.1
20260901093311 56 270 0.0 0.0 0.00 0.00 0.00 90 1010.1
20260901092815 56 270 0.0 0.0 0.00 0.00 0.00 90 1010.1
20260901092308 56 270 0.0 0.0 0.00 0.00 0.00 90 1010.1
20260901091809 56 270 0.0 0.0 0.00 0.00 0.00 91 1010.1
20260901091312 56 270 0.0 0.0 0.00 0.00 0.00 91 1010.0
20260901090810 56 270 0.0 0.0 0.00 0.00 0.00 91 1010.0
20260901090308 56 270 0.0 0.0 0.00 0.00 0.00 91 1010.0
20260901084801 56 270 0.0 0.0 0.00 0.00 0.00 91 1010.0
20260901084300 56 270 0.0 0.0 0.00 0.00 0.00 91 1010.0
20260901083759 56 270 0.0 0.0 0.00 0.00 0.00 91 1010.0
20260901082800 55 270 0.0 0.0 0.00 0.00 0.00 90 1010.0
20260901081750 55 270 0.0 0.0 0.00 0.00 0.00 90 1010.0
20260901081249 55 270 0.0 0.0 0.00 0.00 0.00 90 1009.8
20260901080742 55 270 0.0 0.0 0.00 0.00 0.00 90 1009.8
20260901080236 55 270 0.0 0.0 0.00 0.00 0.00 89 1009.8
20260901075732 55 270 0.0 0.0 0.00 0.00 0.00 89 1009.7
20260901075224 55 270 0.0 0.0 0.00 0.00 0.00 89 1009.7
20260901074724 56 270 0.0 0.0 0.00 0.00 0.00 89 1009.7
20260901074222 56 270 0.0 0.0 0.00 0.00 0.00 89 1009.8
20260901073722 56 270 0.0 0.0 0.00 0.00 0.00 88 1009.8
20260901073219 56 270 0.0 0.0 0.00 0.00 0.00 88 1009.8
20260901072714 56 270 0.0 0.0 0.00 0.00 0.00 88 1009.9
20260901072215 56 270 0.0 0.0 0.00 0.00 0.00 88 1009.9
20260901071204 57 270 0.0 0.0 0.00 0.00 0.00 88 1010.0
20260901070706 57 270 0.0 0.0 0.00 0.00 0.00 88 1010.0
20260901070204 57 270 0.0 0.0 0.00 0.00 0.00 88 1010.0
20260901065206 57 270 0.0 0.0 0.00 0.00 0.00 88 1010.1
20260901064201 57 270 0.0 0.0 0.00 0.00 0.00 89 1010.1
20260901063657 57 270 0.0 0.0 0.00 0.00 0.00 89 1010.1
20260901063157 57 270 0.0 0.0 0.00 0.00 0.00 89 1010.1
20260901062656 57 270 0.0 0.0 0.00 0.00 0.00 88 1010.1
20260901062151 57 270 0.0 0.0 0.00 0.00 0.00 88 1010.1
20260901055650 56 270 0.9 1.7 0.00 0.00 0.00 89 1009.9
20260901055147 56 270 0.0 1.7 0.00 0.00 0.00 88 1009.9
20260901054645 56 270 0.9 1.7 0.00 0.00 0.00 88 1009.9
20260901054148 56 270 0.9 2.6 0.00 0.00 0.00 88 1009.7
20260901053141 56 270 0.0 0.0 0.00 0.00 0.00 87 1009.7
20260901052640 56 270 0.0 0.0 0.00 0.00 0.00 87 1009.6
20260901052140 56 270 0.0 0.0 0.00 0.00 0.00 87 1009.6
20260901051639 57 270 0.0 0.0 0.00 0.00 0.00 86 1009.6
20260901051138 57 270 0.0 0.0 0.00 0.00 0.00 86 1009.7
20260901050630 57 270 0.0 0.0 0.00 0.00 0.00 86 1009.7
20260901050127 57 270 0.0 0.0 0.00 0.00 0.00 86 1009.7
20260901045619 57 270 0.0 0.0 0.00 0.00 0.00 86 1009.6
20260901045123 57 270 0.0 0.9 0.00 0.00 0.00 85 1009.6
20260901043614 58 270 0.0 0.9 0.00 0.00 0.00 84 1009.5
20260901043112 58 270 0.0 0.0 0.00 0.00 0.00 84 1009.5
20260901042608 58 270 0.0 0.9 0.00 0.00 0.00 83 1009.5
20260901042112 59 270 0.0 1.7 0.00 0.00 0.00 83 1009.5
20260901041105 59 270 0.9 6.1 0.00 0.00 0.00 83 1009.6
20260901040603 59 267 0.9 6.1 0.00 0.00 0.00 83 1009.6
20260901040057 59 273 1.7 5.2 0.00 0.00 0.00 83 1009.6
20260901035554 59 273 2.6 6.1 0.00 0.00 0.00 82 1009.5
20260901035056 59 275 1.7 6.1 0.00 0.00 0.00 82 1009.5
20260901034050 59 270 2.6 7.0 0.00 0.00 0.00 82 1009.2
20260901033043 59 285 2.6 6.1 0.00 0.00 0.00 82 1009.2
20260901032541 59 265 1.7 4.3 0.00 0.00 0.00 82 1008.7
20260901032041 59 259 1.7 4.3 0.00 0.00 0.00 82 1008.7
20260901031537 59 277 1.7 4.3 0.00 0.00 0.00 81 1008.7
20260901031037 59 275 1.7 6.1 0.00 0.00 0.00 81 1008.5
20260901030534 60 275 1.7 6.1 0.00 0.00 0.00 81 1008.5
20260901030033 60 278 1.7 3.5 0.00 0.00 0.00 81 1008.5
20260901025031 60 278 2.6 5.2 0.00 0.00 0.00 80 1008.4
20260901024527 60 277 1.7 5.2 0.00 0.00 0.00 79 1008.4
20260901024024 60 276 1.7 5.2 0.00 0.00 0.00 79 1008.4
20260901023522 60 296 1.7 4.3 0.00 0.00 0.00 78 1008.4
20260901023019 61 286 0.9 3.5 0.00 0.00 0.00 78 1008.4
20260901022517 61 286 1.7 7.0 0.00 0.00 0.00 77 1008.4
20260901022014 61 288 1.7 7.0 0.00 0.00 0.00 77 1008.4
20260901021509 61 312 1.7 4.3 0.00 0.00 0.00 76 1008.4
20260901021007 62 312 1.7 7.0 0.00 0.00 0.00 76 1008.4
20260901020508 62 312 2.6 7.0 0.00 0.00 0.00 76 1008.4
20260901020009 62 275 2.6 8.7 0.00 0.00 0.00 76 1008.4
20260901015505 62 292 3.5 8.7 0.00 0.00 0.00 75 1008.2
20260901015001 63 283 3.5 7.8 0.00 0.00 0.00 74 1008.2
20260901013957 64 300 1.7 4.3 0.00 0.00 0.00 72 1008.3
20260901013458 64 281 2.6 5.2 0.00 0.00 0.00 72 1008.3
20260901012455 66 309 2.6 6.1 0.00 0.00 0.00 69 1008.1
20260901011954 66 340 2.6 6.1 0.00 0.00 0.00 68 1008.1
20260901011452 66 331 2.6 6.1 0.00 0.00 0.00 69 1008.1
20260901010951 66 319 2.6 6.1 0.00 0.00 0.00 69 1008.3
20260901010452 66 319 2.6 6.1 0.00 0.00 0.00 68 1008.3
20260901005944 67 318 2.6 6.1 0.00 0.00 0.00 68 1008.3
20260901005446 67 310 2.6 5.2 0.00 0.00 0.00 67 1008.2
20260901004947 67 313 2.6 7.0 0.00 0.00 0.00 66 1008.2
20260901004447 68 310 2.6 7.0 0.00 0.00 0.00 66 1008.2
20260901003946 68 275 2.6 7.0 0.00 0.00 0.00 65 1008.3
20260901003445 69 251 2.6 7.0 0.00 0.00 0.00 64 1008.3
20260901002943 69 350 3.5 7.8 0.00 0.00 0.00 65 1008.3
20260901002440 69 323 3.5 8.7 0.00 0.00 0.00 65 1008.3
20260901001934 69 324 3.5 8.7 0.00 0.00 0.00 63 1008.3
20260901001431 70 258 3.5 7.0 0.00 0.00 0.00 64 1008.3
20260901000930 69 313 3.5 9.6 0.00 0.00 0.00 64 1008.4
20260901000428 69 317 3.5 9.6 0.00 0.00 0.00 64 1008.4
20260831235924 69 321 3.5 8.7 0.00 0.00 0.00 64 1008.4
20260831234927 70 322 3.5 7.8 0.00 0.00 0.00 64 1008.3
20260831234425 69 315 4.3 7.8 0.00 0.00 0.00 65 1008.3
20260831233921 69 315 4.3 7.8 0.00 0.00 0.00 64 1008.5
20260831233422 69 288 3.5 7.8 0.00 0.00 0.00 64 1008.5
20260831232919 69 315 3.5 7.8 0.00 0.00 0.00 64 1008.5
20260831232417 70 313 3.5 8.7 0.00 0.00 0.00 63 1008.5
20260831231914 70 341 3.5 8.7 0.00 0.00 0.00 63 1008.5
20260831231414 69 308 4.3 8.7 0.00 0.00 0.00 64 1008.5
20260831230910 69 310 4.3 8.7 0.00 0.00 0.00 65 1008.6
20260831230414 70 307 4.3 8.7 0.00 0.00 0.00 64 1008.6
20260831225912 69 323 4.3 10.4 0.00 0.00 0.00 64 1008.6
20260831225407 69 315 4.3 10.4 0.00 0.00 0.00 64 1008.7
20260831224910 70 321 4.3 9.6 0.00 0.00 0.00 62 1008.7
20260831223405 71 313 4.3 8.7 0.00 0.00 0.00 61 1008.9
20260831222903 71 306 4.3 9.6 0.00 0.00 0.00 62 1008.9
20260831222401 70 326 4.3 9.6 0.00 0.00 0.00 62 1009.0
20260831221901 71 281 4.3 9.6 0.00 0.00 0.00 62 1009.0
20260831221358 71 321 4.3 9.6 0.00 0.00 0.00 61 1009.1
20260831220356 71 260 5.2 10.4 0.00 0.00 0.00 61 1009.1
20260831215356 73 317 3.5 8.7 0.00 0.00 0.00 58 1009.1
20260831214856 72 348 3.5 8.7 0.00 0.00 0.00 59 1009.1
20260831214352 72 331 3.5 8.7 0.00 0.00 0.00 59 1009.2
20260831213852 73 350 3.5 8.7 0.00 0.00 0.00 59 1009.2
20260831213351 73 347 3.5 8.7 0.00 0.00 0.00 58 1009.2
20260831212851 73 323 3.5 8.7 0.00 0.00 0.00 57 1009.2
20260831211850 73 306 3.5 7.8 0.00 0.00 0.00 58 1009.2
20260831211351 74 313 3.5 7.8 0.00 0.00 0.00 57 1009.2
20260831210848 74 30 3.5 8.7 0.00 0.00 0.00 57 1009.2
20260831210347 74 349 2.6 8.7 0.00 0.00 0.00 57 1009.2
20260831205847 74 319 2.6 9.6 0.00 0.00 0.00 58 1009.2
20260831205345 74 304 2.6 9.6 0.00 0.00 0.00 58 1009.2
20260831204844 74 306 2.6 6.1 0.00 0.00 0.00 58 1009.2
20260831204346 74 15 2.6 7.0 0.00 0.00 0.00 57 1009.2
20260831203844 74 343 2.6 7.0 0.00 0.00 0.00 57 1009.2
20260831203342 74 300 2.6 6.1 0.00 0.00 0.00 57 1009.2
20260831202844 74 322 2.6 6.1 0.00 0.00 0.00 57 1009.2
20260831202342 74 336 1.7 5.2 0.00 0.00 0.00 58 1009.2
20260831201840 74 0 1.7 6.1 0.00 0.00 0.00 58 1009.2
20260831200835 73 355 1.7 4.3 0.00 0.00 0.00 58 1009.3
20260831200334 73 355 1.7 4.3 0.00 0.00 0.00 60 1009.3
20260831195830 72 346 1.7 4.3 0.00 0.00 0.00 62 1009.7
20260831195324 71 321 0.9 4.3 0.00 0.00 0.00 61 1009.7
20260831194824 72 108 0.9 4.3 0.00 0.00 0.00 59 1009.8
20260831194321 72 341 1.7 4.3 0.00 0.00 0.00 62 1009.8
20260831193819 71 340 1.7 4.3 0.00 0.00 0.00 62 1009.8
20260831193317 71 341 1.7 4.3 0.00 0.00 0.00 63 1009.8
20260831192815 71 327 1.7 4.3 0.00 0.00 0.00 64 1010.1
20260831192315 70 325 1.7 4.3 0.00 0.00 0.00 64 1010.1
20260831191816 70 323 1.7 5.2 0.00 0.00 0.00 64 1010.1